Location: Chimay
(50.0486°N, 4.3171°E)
Time: 21:36:38
(UTC+00:00)

USA 238 DEB - Pass Details

Date: 08 August 2020
Orbit: 1006 x 1206 km, 63.4° (Epoch: 19 September)

Event Time Altitude Azimuth Distance (km) Brightness Sun altitude
Rises 20:30:07 0° 183° (S) 3,732 6.2 -11.1°
Reaches altitude 10° 20:32:58 10° 173° (S) 2,800 5.5 -11.4°
Maximum altitude 20:38:34 31° 114° (ESE) 1,753 4.3 -12.1°
Drops below altitude 10° 20:44:23 10° 56° (NE) 2,909 5.9 -12.7°
Sets 20:47:23 0° 47° (NE) 3,901 6.6 -13.1°
